Tracking 35036 objects as of 15-Aug-2026
HD Live streaming from Space Station
objects crossing your sky now

SL-4 R/B


SL-4 R/B is no longer on orbit


NORAD ID: 37634
Int'l Code: 2011-023B
Launch date: June 7, 2011
Source: Commonwealth of Independent States (former USSR) (CIS)
Launch site: TYURATAM MISSILE AND SPACE COMPLEX (TTMTR)
Decay date: 2011-06-11

Note: This is a ROCKET BODY
Your satellite tracking list
Your tracking list is empty




NASA's NSSDC Master Catalog

Two Line Element Set (TLE):
1 37634U 11023B   11162.76053890  .21958617  12723-4  14592-3 0  9991
2 37634 051.6549 187.2706 0003787 142.5279 219.2329 16.53302683   646
Source of the keplerian elements: AFSPC